Location: Newark
(43.9494°N, 6.8108°E)
Time: 15:13:19
(UTC+00:00)

Tiros 1 - All Passes

Search period start: 20 October 2019 00:00
Search period end: 30 October 2019 00:00
Orbit: 630 x 664 km, 48.4° (Epoch: 19 October)

Date Brightness Start Highest point End Pass type
(mag) Time Alt. Az. Time Alt. Az. Time Alt. Az.
20 Oct - 00:01:04 10° S 00:04:26 19° SE 00:07:50 10° E night (unlit)
20 Oct - 01:41:20 10° WSW 01:46:06 76° SSE 01:50:54 10° ENE visible
20 Oct - 03:23:50 10° W 03:28:32 52° N 03:33:16 10° ENE visible
20 Oct - 05:06:30 10° WNW 05:11:15 58° NNE 05:16:01 10° E visible
20 Oct - 06:48:49 10° WNW 06:53:34 58° SSW 06:58:16 10° SE daylight
20 Oct - 08:32:41 10° WSW 08:35:02 14° SW 08:37:21 10° SSW daylight
21 Oct - 00:25:45 10° SSW 00:30:09 38° SE 00:34:36 10° ENE night (unlit)
21 Oct - 02:07:26 10° WSW 02:12:13 70° NNW 02:17:02 10° ENE visible
21 Oct - 03:50:12 10° WNW 03:54:53 49° N 03:59:34 10° ENE visible
21 Oct - 05:32:38 10° WNW 05:37:28 81° NNE 05:42:18 10° ESE daylight
21 Oct - 07:15:12 10° W 07:19:25 30° SW 07:23:35 10° SSE daylight
21 Oct - 23:11:17 10° S 23:14:27 18° SE 23:17:39 10° E night (unlit)
22 Oct - 00:51:20 10° SW 00:56:04 72° SSE 01:00:52 10° ENE night (unlit)
22 Oct - 02:33:46 10° W 02:38:29 53° N 02:43:13 10° ENE visible
22 Oct - 04:16:27 10° WNW 04:21:12 56° NNE 04:25:57 10° E visible
22 Oct - 05:58:46 10° WNW 06:03:32 62° SSW 06:08:17 10° SE daylight
22 Oct - 07:42:24 10° W 07:45:03 15° SW 07:47:42 10° SSW daylight
22 Oct - 23:35:49 10° SSW 23:40:08 36° SE 23:44:31 10° ENE night (unlit)
23 Oct - 01:17:24 10° WSW 01:22:10 73° NNW 01:27:00 10° ENE visible
23 Oct - 03:00:08 10° WNW 03:04:49 49° N 03:09:30 10° ENE visible
23 Oct - 04:42:36 10° WNW 04:47:26 77° NNE 04:52:15 10° ESE visible
23 Oct - 06:25:07 10° WNW 06:29:25 33° SW 06:33:41 10° SSE daylight
23 Oct - 22:21:32 10° S 22:24:29 16° SE 22:27:26 10° E night (unlit)
24 Oct - 00:01:20 10° SW 00:06:02 67° SSE 00:10:48 10° ENE night (unlit)
24 Oct - 01:43:43 10° W 01:48:25 54° N 01:53:09 10° ENE visible
24 Oct - 03:26:25 10° WNW 03:31:09 55° N 03:35:53 10° E visible
24 Oct - 05:08:44 10° WNW 05:13:31 66° SSW 05:18:17 10° SE visible
24 Oct - 06:52:09 10° W 06:55:04 16° SW 06:57:59 10° S daylight
24 Oct - 22:45:55 10° SSW 22:50:09 33° SE 22:54:26 10° ENE night (unlit)
25 Oct - 00:27:21 10° WSW 00:32:07 76° NNW 00:36:57 10° ENE night (unlit)
25 Oct - 02:10:05 10° WNW 02:14:45 49° N 02:19:26 10° ENE visible
25 Oct - 03:52:33 10° WNW 03:57:23 74° NNE 04:02:12 10° ESE visible
25 Oct - 05:35:01 10° WNW 05:39:24 35° SW 05:43:45 10° SSE daylight
25 Oct - 21:31:51 10° SSE 21:34:30 15° SE 21:37:12 10° E night (unlit)
25 Oct - 23:11:21 10° SW 23:16:01 63° SSE 23:20:45 10° ENE night (unlit)
26 Oct - 00:53:40 10° W 00:58:22 55° N 01:03:06 10° ENE night (unlit)
26 Oct - 02:36:22 10° WNW 02:41:05 54° N 02:45:49 10° E visible
26 Oct - 04:18:41 10° WNW 04:23:28 70° SSW 04:28:16 10° SE visible
26 Oct - 06:01:56 10° W 06:05:05 17° SW 06:08:14 10° S daylight
26 Oct - 21:56:01 10° SSW 22:00:09 31° SE 22:04:20 10° E night (unlit)
26 Oct - 23:37:20 10° WSW 23:42:05 79° NNW 23:46:54 10° ENE night (unlit)
27 Oct - 01:20:03 10° WNW 01:24:41 49° N 01:29:22 10° ENE visible
27 Oct - 03:02:31 10° WNW 03:07:20 71° NNE 03:12:09 10° ESE visible
27 Oct - 04:44:57 10° WNW 04:49:23 37° SW 04:53:49 10° SSE visible
27 Oct - 20:42:11 10° SSE 20:44:32 14° SE 20:46:53 10° ESE night (unlit)
27 Oct - 22:21:22 10° SW 22:26:00 59° SSE 22:30:42 10° ENE night (unlit)
28 Oct - 00:03:37 10° W 00:08:18 57° NNW 00:13:03 10° ENE night (unlit)
28 Oct - 01:46:20 10° WNW 01:51:01 53° N 01:55:44 10° E visible
28 Oct - 03:28:39 10° WNW 03:33:26 74° SSW 03:38:15 10° SE visible
28 Oct - 05:11:45 10° W 05:15:06 19° SW 05:18:27 10° S visible
28 Oct - 21:06:08 10° SSW 21:10:09 29° SE 21:14:14 10° E night (unlit)
28 Oct - 22:47:18 10° WSW 22:52:03 82° NNW 22:56:51 10° ENE night (unlit)
29 Oct - 00:30:00 10° WNW 00:34:37 49° N 00:39:18 10° ENE night (unlit)
29 Oct - 02:12:30 10° WNW 02:17:17 69° NNE 02:22:05 10° ESE visible
29 Oct - 03:54:53 10° WNW 03:59:23 40° SW 04:03:52 10° SSE visible
29 Oct - 19:52:36 10° SSE 19:54:34 12° SE 19:56:31 10° ESE night (unlit)
29 Oct - 21:31:24 10° SW 21:35:59 56° SSE 21:40:39 10° ENE night (unlit)
29 Oct - 23:13:34 10° W 23:18:15 58° NNW 23:22:59 10° ENE night (unlit)
